User: anonymous   Login
Location: Young's Pond
(41.2695°N, 72.7766°W)
Time: 14:44:40
(UTC-04:00)
Language:

Spot 4 - Orbit

View from above orbital plane
View from above orbital plane
View from above satellite
View from above satellite

Ground track
Ground track

The orbit data is extracted from the following two-line orbital elements,

1 25260U 98017A   16239.83304051 -.00000034  00000-0  28822-5 0  9990
2 25260  98.3758 316.8517 0014304  98.1394 262.1424 14.53424318959092
Epoch (UTC): 26 August 2016 19:59:34
Eccentricity: 0.0014304
inclination: 98.3758°
perigee height: 704 km
apogee height: 724 km
right ascension of ascending node: 316.8517°
argument of perigee: 98.1394°
revolutions per day: 14.53424318
mean anomaly at epoch: 262.1424°
orbit number at epoch: 95909

The dashed part of the orbit path shows where the satellite is in the earth's shadow,  

DLR